Year,Month,Day,Hour,Minute,Value (Times are PST for temperature in C)
2018,06,17,00,00,24.00
2018,06,17,00,01,24.00
2018,06,17,00,02,24.10
2018,06,17,00,03,24.10
2018,06,17,00,04,24.10
2018,06,17,00,05,24.20
2018,06,17,00,06,24.20
2018,06,17,00,07,24.20
2018,06,17,00,08,24.10
2018,06,17,00,09,24.10
2018,06,17,00,10,24.10
2018,06,17,00,11,24.10
2018,06,17,00,12,24.00
2018,06,17,00,13,24.00
2018,06,17,00,14,24.00
2018,06,17,00,15,24.00
2018,06,17,00,16,24.00
2018,06,17,00,17,24.00
2018,06,17,00,18,24.00
2018,06,17,00,19,23.90
2018,06,17,00,20,23.90
2018,06,17,00,21,23.80
2018,06,17,00,22,23.80
2018,06,17,00,23,23.80
2018,06,17,00,24,23.70
2018,06,17,00,25,23.60
2018,06,17,00,26,23.40
2018,06,17,00,27,23.10
2018,06,17,00,28,22.70
2018,06,17,00,29,22.40
2018,06,17,00,30,21.90
2018,06,17,00,31,21.50
2018,06,17,00,32,21.10
2018,06,17,00,33,20.50
2018,06,17,00,34,20.10
2018,06,17,00,35,19.60
2018,06,17,00,36,19.10
2018,06,17,00,37,18.70
2018,06,17,00,38,18.30
2018,06,17,00,39,18.00
2018,06,17,00,40,17.80
2018,06,17,00,41,17.60
2018,06,17,00,42,17.40
2018,06,17,00,43,17.30
2018,06,17,00,44,17.20
2018,06,17,00,45,17.10
2018,06,17,00,46,17.00
2018,06,17,00,47,16.90
2018,06,17,00,48,16.80
2018,06,17,00,49,16.80
2018,06,17,00,50,16.70
2018,06,17,00,51,16.70
2018,06,17,00,52,16.60
2018,06,17,00,53,16.60
2018,06,17,00,54,16.60
2018,06,17,00,55,16.50
2018,06,17,00,56,16.50
2018,06,17,00,57,16.50
2018,06,17,00,58,16.40
2018,06,17,00,59,16.40
2018,06,17,01,00,16.40
2018,06,17,01,01,16.40
2018,06,17,01,02,16.40
2018,06,17,01,03,16.40
2018,06,17,01,04,16.30
2018,06,17,01,05,16.30
2018,06,17,01,06,16.30
2018,06,17,01,07,16.30
2018,06,17,01,08,16.30
2018,06,17,01,09,16.30
2018,06,17,01,10,16.20
2018,06,17,01,11,16.20
2018,06,17,01,12,16.20
2018,06,17,01,13,16.20
2018,06,17,01,14,16.20
2018,06,17,01,15,16.10
2018,06,17,01,16,16.10
2018,06,17,01,17,16.10
2018,06,17,01,18,16.00
2018,06,17,01,19,16.00
2018,06,17,01,20,16.00
2018,06,17,01,21,15.90
2018,06,17,01,22,15.90
2018,06,17,01,23,15.90
2018,06,17,01,24,15.90
2018,06,17,01,25,15.90
2018,06,17,01,26,15.80
2018,06,17,01,27,15.80
2018,06,17,01,28,15.80
2018,06,17,01,29,15.80
2018,06,17,01,30,15.80
2018,06,17,01,31,15.80
2018,06,17,01,32,15.80
2018,06,17,01,33,15.80
2018,06,17,01,34,15.70
2018,06,17,01,35,15.70
2018,06,17,01,36,15.70
2018,06,17,01,37,15.70
2018,06,17,01,38,15.70
2018,06,17,01,39,15.70
2018,06,17,01,40,15.70
2018,06,17,01,41,15.70
2018,06,17,01,42,15.60
2018,06,17,01,43,15.60
2018,06,17,01,44,15.60
2018,06,17,01,45,15.60
2018,06,17,01,46,15.50
2018,06,17,01,47,15.50
2018,06,17,01,48,15.50
2018,06,17,01,49,15.40
2018,06,17,01,50,15.40
2018,06,17,01,51,15.40
2018,06,17,01,52,15.40
2018,06,17,01,53,15.30
2018,06,17,01,54,15.30
2018,06,17,01,55,15.30
2018,06,17,01,56,15.30
2018,06,17,01,57,15.30
2018,06,17,01,58,15.30
2018,06,17,01,59,15.30
2018,06,17,02,00,15.30
2018,06,17,02,01,15.20
2018,06,17,02,02,15.20
2018,06,17,02,03,15.20
2018,06,17,02,04,15.20
2018,06,17,02,05,15.20
2018,06,17,02,06,15.20
2018,06,17,02,07,15.20
2018,06,17,02,08,15.20
2018,06,17,02,09,15.20
2018,06,17,02,10,15.20
2018,06,17,02,11,15.10
2018,06,17,02,12,15.10
2018,06,17,02,13,15.10
2018,06,17,02,14,15.10
2018,06,17,02,15,15.10
2018,06,17,02,16,15.10
2018,06,17,02,17,15.10
2018,06,17,02,18,15.10
2018,06,17,02,19,15.10
2018,06,17,02,20,15.10
2018,06,17,02,21,15.10
2018,06,17,02,22,15.10
2018,06,17,02,23,15.10
2018,06,17,02,24,15.20
2018,06,17,02,25,15.20
2018,06,17,02,26,15.20
2018,06,17,02,27,15.20
2018,06,17,02,28,15.20
2018,06,17,02,29,15.20
2018,06,17,02,30,15.20
2018,06,17,02,31,15.20
2018,06,17,02,32,15.20
2018,06,17,02,33,15.20
2018,06,17,02,34,15.20
2018,06,17,02,35,15.20
2018,06,17,02,36,15.20
2018,06,17,02,37,15.20
2018,06,17,02,38,15.20
2018,06,17,02,39,15.20
2018,06,17,02,40,15.20
2018,06,17,02,41,15.20
2018,06,17,02,42,15.20
2018,06,17,02,43,15.20
2018,06,17,02,44,15.20
2018,06,17,02,45,15.30
2018,06,17,02,46,15.30
2018,06,17,02,47,15.40
2018,06,17,02,48,15.50
2018,06,17,02,49,15.70
2018,06,17,02,50,15.80
2018,06,17,02,51,15.90
2018,06,17,02,52,16.00
2018,06,17,02,53,16.20
2018,06,17,02,54,16.20
2018,06,17,02,55,16.30
2018,06,17,02,56,16.30
2018,06,17,02,57,16.30
2018,06,17,02,58,16.40
2018,06,17,02,59,16.40
2018,06,17,03,00,16.50
2018,06,17,03,01,16.50
2018,06,17,03,02,16.50
2018,06,17,03,03,16.50
2018,06,17,03,04,16.50
2018,06,17,03,05,16.50
2018,06,17,03,06,16.60
2018,06,17,03,07,16.60
2018,06,17,03,08,16.60
2018,06,17,03,09,16.70
2018,06,17,03,10,16.70
2018,06,17,03,11,16.70
2018,06,17,03,12,16.80
2018,06,17,03,13,16.80
2018,06,17,03,14,16.80
2018,06,17,03,15,16.80
2018,06,17,03,16,16.90
2018,06,17,03,17,16.90
2018,06,17,03,18,17.00
2018,06,17,03,19,17.10
2018,06,17,03,20,17.10
2018,06,17,03,21,17.20
2018,06,17,03,22,17.20
2018,06,17,03,23,17.10
2018,06,17,03,24,17.20
2018,06,17,03,25,17.20
2018,06,17,03,26,17.30
2018,06,17,03,27,17.30
2018,06,17,03,28,17.40
2018,06,17,03,29,17.40
2018,06,17,03,30,17.40
2018,06,17,03,31,17.40
2018,06,17,03,32,17.40
2018,06,17,03,33,17.40
2018,06,17,03,34,17.30
2018,06,17,03,35,17.30
2018,06,17,03,36,17.30
2018,06,17,03,37,17.40
2018,06,17,03,38,17.50
2018,06,17,03,39,17.60
2018,06,17,03,40,17.60
2018,06,17,03,41,17.60
2018,06,17,03,42,17.60
2018,06,17,03,43,17.50
2018,06,17,03,44,17.50
2018,06,17,03,45,17.60
2018,06,17,03,46,17.60
2018,06,17,03,47,17.70
2018,06,17,03,48,17.80
2018,06,17,03,49,17.80
2018,06,17,03,50,17.90
2018,06,17,03,51,18.00
2018,06,17,03,52,18.00
2018,06,17,03,53,18.10
2018,06,17,03,54,18.20
2018,06,17,03,55,18.20
2018,06,17,03,56,18.20
2018,06,17,03,57,18.20
2018,06,17,03,58,18.20
2018,06,17,03,59,18.30
2018,06,17,04,00,18.40
2018,06,17,04,01,18.50
2018,06,17,04,02,18.50
2018,06,17,04,03,18.50
2018,06,17,04,04,18.60
2018,06,17,04,05,18.60
2018,06,17,04,06,18.70
2018,06,17,04,07,18.70
2018,06,17,04,08,18.80
2018,06,17,04,09,18.80
2018,06,17,04,10,18.80
2018,06,17,04,11,18.80
2018,06,17,04,12,18.80
2018,06,17,04,13,18.80
2018,06,17,04,14,18.80
2018,06,17,04,15,18.80
2018,06,17,04,16,18.80
2018,06,17,04,17,18.80
2018,06,17,04,18,18.80
2018,06,17,04,19,18.80
2018,06,17,04,20,18.80
2018,06,17,04,21,18.80
2018,06,17,04,22,18.80
2018,06,17,04,23,18.80
2018,06,17,04,24,18.80
2018,06,17,04,25,18.80
2018,06,17,04,26,18.80
2018,06,17,04,27,18.80
2018,06,17,04,28,18.70
2018,06,17,04,29,18.70
2018,06,17,04,30,18.70
2018,06,17,04,31,18.60
2018,06,17,04,32,18.50
2018,06,17,04,33,18.40
2018,06,17,04,34,18.40
2018,06,17,04,35,18.40
2018,06,17,04,36,18.30
2018,06,17,04,37,18.30
2018,06,17,04,38,18.30
2018,06,17,04,39,18.30
2018,06,17,04,40,18.20
2018,06,17,04,41,18.20
2018,06,17,04,42,18.20
2018,06,17,04,43,18.20
2018,06,17,04,44,18.20
2018,06,17,04,45,18.20
2018,06,17,04,46,18.20
2018,06,17,04,47,18.20
2018,06,17,04,48,18.30
2018,06,17,04,49,18.30
2018,06,17,04,50,18.40
2018,06,17,04,51,18.50
2018,06,17,04,52,18.50
2018,06,17,04,53,18.50
2018,06,17,04,54,18.40
2018,06,17,04,55,18.40
2018,06,17,04,56,18.40
2018,06,17,04,57,18.40
2018,06,17,04,58,18.40
2018,06,17,04,59,18.30
2018,06,17,05,00,18.30
2018,06,17,05,01,18.40
2018,06,17,05,02,18.50
2018,06,17,05,03,18.50
2018,06,17,05,04,18.60
2018,06,17,05,05,18.60
2018,06,17,05,06,18.60
2018,06,17,05,07,18.60
2018,06,17,05,08,18.60
2018,06,17,05,09,18.60
2018,06,17,05,10,18.70
2018,06,17,05,11,18.70
2018,06,17,05,12,18.70
2018,06,17,05,13,18.70
2018,06,17,05,14,18.70
2018,06,17,05,15,18.70
2018,06,17,05,16,18.60
2018,06,17,05,17,18.50
2018,06,17,05,18,18.40
2018,06,17,05,19,18.40
2018,06,17,05,20,18.40
2018,06,17,05,21,18.40
2018,06,17,05,22,18.50
2018,06,17,05,23,18.70
2018,06,17,05,24,18.80
2018,06,17,05,25,18.90
2018,06,17,05,26,18.90
2018,06,17,05,27,19.00
2018,06,17,05,28,19.00
2018,06,17,05,29,19.10
2018,06,17,05,30,19.10
2018,06,17,05,31,19.20
2018,06,17,05,32,19.20
2018,06,17,05,33,19.20
2018,06,17,05,34,19.20
2018,06,17,05,35,19.30
2018,06,17,05,36,19.30
2018,06,17,05,37,19.30
2018,06,17,05,38,19.30
2018,06,17,05,39,19.30
2018,06,17,05,40,19.30
2018,06,17,05,41,19.40
2018,06,17,05,42,19.40
2018,06,17,05,43,19.40
2018,06,17,05,44,19.50
2018,06,17,05,45,19.50
2018,06,17,05,46,19.60
2018,06,17,05,47,19.60
2018,06,17,05,48,19.60
2018,06,17,05,49,19.60
2018,06,17,05,50,19.70
2018,06,17,05,51,19.70
2018,06,17,05,52,19.70
2018,06,17,05,53,19.70
2018,06,17,05,54,19.70
2018,06,17,05,55,19.70
2018,06,17,05,56,19.70
2018,06,17,05,57,19.80
2018,06,17,05,58,19.80
2018,06,17,05,59,19.80
2018,06,17,06,00,19.80
2018,06,17,06,01,19.80
2018,06,17,06,02,19.80
2018,06,17,06,03,19.90
2018,06,17,06,04,19.90
2018,06,17,06,05,20.00
2018,06,17,06,06,20.00
2018,06,17,06,07,20.00
2018,06,17,06,08,20.00
2018,06,17,06,09,20.00
2018,06,17,06,10,20.00
2018,06,17,06,11,20.00
2018,06,17,06,12,20.00
2018,06,17,06,13,20.10
2018,06,17,06,14,20.10
2018,06,17,06,15,20.10
2018,06,17,06,16,20.20
2018,06,17,06,17,20.20
2018,06,17,06,18,20.20
2018,06,17,06,19,20.20
2018,06,17,06,20,20.20
2018,06,17,06,21,20.30
2018,06,17,06,22,20.30
2018,06,17,06,23,20.30
2018,06,17,06,24,20.30
2018,06,17,06,25,20.40
2018,06,17,06,26,20.40
2018,06,17,06,27,20.30
2018,06,17,06,28,20.40
2018,06,17,06,29,20.40
2018,06,17,06,30,20.40
2018,06,17,06,31,20.40
2018,06,17,06,32,20.40
2018,06,17,06,33,20.40
2018,06,17,06,34,20.40
2018,06,17,06,35,20.40
2018,06,17,06,36,20.50
2018,06,17,06,37,20.50
2018,06,17,06,38,20.50
2018,06,17,06,39,20.50
2018,06,17,06,40,20.50
2018,06,17,06,41,20.60
2018,06,17,06,42,20.60
2018,06,17,06,43,20.60
2018,06,17,06,44,20.60
2018,06,17,06,45,20.70
2018,06,17,06,46,20.70
2018,06,17,06,47,20.70
2018,06,17,06,48,20.80
2018,06,17,06,49,20.80
2018,06,17,06,50,20.90
2018,06,17,06,51,20.90
2018,06,17,06,52,21.00
2018,06,17,06,53,21.00
2018,06,17,06,54,21.10
2018,06,17,06,55,21.10
2018,06,17,06,56,21.10
2018,06,17,06,57,21.10
2018,06,17,06,58,21.10
2018,06,17,06,59,21.10
2018,06,17,07,00,21.10
2018,06,17,07,01,21.10
2018,06,17,07,02,21.10
2018,06,17,07,03,21.10
2018,06,17,07,04,21.10
2018,06,17,07,05,21.20
2018,06,17,07,06,21.20
2018,06,17,07,07,21.20
2018,06,17,07,08,21.20
2018,06,17,07,09,21.30
2018,06,17,07,10,21.30
2018,06,17,07,11,21.30
2018,06,17,07,12,21.30
2018,06,17,07,13,21.20
2018,06,17,07,14,21.20
2018,06,17,07,15,21.20
2018,06,17,07,16,21.20
2018,06,17,07,17,21.20
2018,06,17,07,18,21.30
2018,06,17,07,19,21.30
2018,06,17,07,20,21.30
2018,06,17,07,21,21.30
2018,06,17,07,22,21.30
2018,06,17,07,23,21.30
2018,06,17,07,24,21.30
2018,06,17,07,25,21.40
2018,06,17,07,26,21.40
2018,06,17,07,27,21.40
2018,06,17,07,28,21.40
2018,06,17,07,29,21.40
2018,06,17,07,30,21.40
2018,06,17,07,31,21.40
2018,06,17,07,32,21.40
2018,06,17,07,33,21.50
2018,06,17,07,34,21.50
2018,06,17,07,35,21.50
2018,06,17,07,36,21.50
2018,06,17,07,37,21.50
2018,06,17,07,38,21.50
2018,06,17,07,39,21.60
2018,06,17,07,40,21.60
2018,06,17,07,41,21.60
2018,06,17,07,42,21.60
2018,06,17,07,43,21.60
2018,06,17,07,44,21.60
2018,06,17,07,45,21.60
2018,06,17,07,46,21.70
2018,06,17,07,47,21.70
2018,06,17,07,48,21.70
2018,06,17,07,49,21.70
2018,06,17,07,50,21.70
2018,06,17,07,51,21.70
2018,06,17,07,52,21.80
2018,06,17,07,53,21.80
2018,06,17,07,54,21.80
2018,06,17,07,55,21.80
2018,06,17,07,56,21.80
2018,06,17,07,57,21.80
2018,06,17,07,58,21.80
2018,06,17,07,59,21.80
2018,06,17,08,00,21.90
2018,06,17,08,01,21.90
2018,06,17,08,02,21.90
2018,06,17,08,03,22.00
2018,06,17,08,04,22.00
2018,06,17,08,05,22.10
2018,06,17,08,06,22.10
2018,06,17,08,07,22.20
2018,06,17,08,08,22.20
2018,06,17,08,09,22.20
2018,06,17,08,10,22.20
2018,06,17,08,11,22.20
2018,06,17,08,12,22.20
2018,06,17,08,13,22.20
2018,06,17,08,14,22.20
2018,06,17,08,15,22.20
2018,06,17,08,16,22.20
2018,06,17,08,17,22.20
2018,06,17,08,18,22.20
2018,06,17,08,19,22.30
2018,06,17,08,20,22.30
2018,06,17,08,21,22.30
2018,06,17,08,22,22.30
2018,06,17,08,23,22.30
2018,06,17,08,24,22.30
2018,06,17,08,25,22.30
2018,06,17,08,26,22.30
2018,06,17,08,27,22.30
2018,06,17,08,28,22.30
2018,06,17,08,29,22.40
2018,06,17,08,30,22.40
2018,06,17,08,31,22.40
2018,06,17,08,32,22.50
2018,06,17,08,33,22.50
2018,06,17,08,34,22.60
2018,06,17,08,35,22.60
2018,06,17,08,36,22.60
2018,06,17,08,37,22.60
2018,06,17,08,38,22.70
2018,06,17,08,39,22.70
2018,06,17,08,40,22.80
2018,06,17,08,41,22.80
2018,06,17,08,42,22.90
2018,06,17,08,43,22.90
2018,06,17,08,44,23.00
2018,06,17,08,45,23.10
2018,06,17,08,46,23.10
2018,06,17,08,47,23.10
2018,06,17,08,48,23.20
2018,06,17,08,49,23.20
2018,06,17,08,50,23.20
2018,06,17,08,51,23.30
2018,06,17,08,52,23.30
2018,06,17,08,53,23.40
2018,06,17,08,54,23.40
2018,06,17,08,55,23.50
2018,06,17,08,56,23.50
2018,06,17,08,57,23.40
2018,06,17,08,58,23.40
2018,06,17,08,59,23.40
2018,06,17,09,00,23.40
2018,06,17,09,01,23.40
2018,06,17,09,02,23.40
2018,06,17,09,03,23.40
2018,06,17,09,04,23.50
2018,06,17,09,05,23.50
2018,06,17,09,06,23.50
2018,06,17,09,07,23.60
2018,06,17,09,08,23.60
2018,06,17,09,09,23.60
2018,06,17,09,10,23.60
2018,06,17,09,11,23.60
2018,06,17,09,12,23.70
2018,06,17,09,13,23.70
2018,06,17,09,14,23.70
2018,06,17,09,15,23.80
2018,06,17,09,16,23.80
2018,06,17,09,17,23.90
2018,06,17,09,18,23.90
2018,06,17,09,19,23.90
2018,06,17,09,20,23.90
2018,06,17,09,21,23.90
2018,06,17,09,22,23.90
2018,06,17,09,23,23.90
2018,06,17,09,24,23.90
2018,06,17,09,25,23.90
2018,06,17,09,26,23.90
2018,06,17,09,27,23.90
2018,06,17,09,28,23.90
2018,06,17,09,29,23.90
2018,06,17,09,30,23.80
2018,06,17,09,31,23.80
2018,06,17,09,32,23.80
2018,06,17,09,33,23.80
2018,06,17,09,34,23.90
2018,06,17,09,35,23.90
2018,06,17,09,36,23.90
2018,06,17,09,37,23.80
2018,06,17,09,38,23.80
2018,06,17,09,39,23.80
2018,06,17,09,40,23.80
2018,06,17,09,41,23.80
2018,06,17,09,42,23.90
2018,06,17,09,43,24.00
2018,06,17,09,44,24.10
2018,06,17,09,45,24.20
2018,06,17,09,46,24.20
2018,06,17,09,47,24.30
2018,06,17,09,48,24.30
2018,06,17,09,49,24.40
2018,06,17,09,50,24.40
2018,06,17,09,51,24.40
2018,06,17,09,52,24.40
2018,06,17,09,53,24.40
2018,06,17,09,54,24.50
2018,06,17,09,55,24.40
2018,06,17,09,56,24.50
2018,06,17,09,57,24.50
2018,06,17,09,58,24.50
2018,06,17,09,59,24.50
2018,06,17,10,00,24.60
2018,06,17,10,01,24.60
2018,06,17,10,02,24.60
2018,06,17,10,03,24.70
2018,06,17,10,04,24.70
2018,06,17,10,05,24.80
2018,06,17,10,06,24.90
2018,06,17,10,07,24.90
2018,06,17,10,08,24.90
2018,06,17,10,09,24.90
2018,06,17,10,10,24.90
2018,06,17,10,11,24.90
2018,06,17,10,12,24.90
2018,06,17,10,13,25.00
2018,06,17,10,14,25.00
2018,06,17,10,15,25.10
2018,06,17,10,16,25.10
2018,06,17,10,17,25.20
2018,06,17,10,18,25.20
2018,06,17,10,19,25.30
2018,06,17,10,20,25.40
2018,06,17,10,21,25.40
2018,06,17,10,22,25.40
2018,06,17,10,23,25.40
2018,06,17,10,24,25.40
2018,06,17,10,25,25.40
2018,06,17,10,26,25.40
2018,06,17,10,27,25.40
2018,06,17,10,28,25.40
2018,06,17,10,29,25.40
2018,06,17,10,30,25.40
2018,06,17,10,31,25.40
2018,06,17,10,32,25.50
2018,06,17,10,33,25.50
2018,06,17,10,34,25.60
2018,06,17,10,35,25.60
2018,06,17,10,36,25.70
2018,06,17,10,37,25.70
2018,06,17,10,38,25.80
2018,06,17,10,39,25.90
2018,06,17,10,40,26.00
2018,06,17,10,41,26.10
2018,06,17,10,42,26.20
2018,06,17,10,43,26.20
2018,06,17,10,44,26.20
2018,06,17,10,45,26.20
2018,06,17,10,46,26.20
2018,06,17,10,47,26.20
2018,06,17,10,48,26.10
2018,06,17,10,49,26.10
2018,06,17,10,50,26.00
2018,06,17,10,51,25.90
2018,06,17,10,52,25.90
2018,06,17,10,53,26.00
2018,06,17,10,54,26.10
2018,06,17,10,55,26.20
2018,06,17,10,56,26.20
2018,06,17,10,57,26.30
2018,06,17,10,58,26.30
2018,06,17,10,59,26.40
2018,06,17,11,00,26.30
2018,06,17,11,01,26.30
2018,06,17,11,02,26.40
2018,06,17,11,03,26.50
2018,06,17,11,04,26.50
2018,06,17,11,05,26.60
2018,06,17,11,06,26.70
2018,06,17,11,07,26.80
2018,06,17,11,08,26.80
2018,06,17,11,09,26.80
2018,06,17,11,10,26.80
2018,06,17,11,11,26.80
2018,06,17,11,12,26.80
2018,06,17,11,13,26.80
2018,06,17,11,14,26.80
2018,06,17,11,15,26.70
2018,06,17,11,16,26.70
2018,06,17,11,17,26.70
2018,06,17,11,18,26.80
2018,06,17,11,19,26.80
2018,06,17,11,20,26.90
2018,06,17,11,21,26.90
2018,06,17,11,22,27.00
2018,06,17,11,23,27.10
2018,06,17,11,24,27.20
2018,06,17,11,25,27.30
2018,06,17,11,26,27.40
2018,06,17,11,27,27.50
2018,06,17,11,28,27.60
2018,06,17,11,29,27.60
2018,06,17,11,30,27.70
2018,06,17,11,31,27.70
2018,06,17,11,32,27.80
2018,06,17,11,33,27.80
2018,06,17,11,34,27.80
2018,06,17,11,35,27.70
2018,06,17,11,36,27.70
2018,06,17,11,37,27.60
2018,06,17,11,38,27.70
2018,06,17,11,39,27.80
2018,06,17,11,40,27.90
2018,06,17,11,41,28.00
2018,06,17,11,42,28.10
2018,06,17,11,43,28.20
2018,06,17,11,44,28.30
2018,06,17,11,45,28.30
2018,06,17,11,46,28.30
2018,06,17,11,47,28.30
2018,06,17,11,48,28.40
2018,06,17,11,49,28.40
2018,06,17,11,50,28.40
2018,06,17,11,51,28.40
2018,06,17,11,52,28.30
2018,06,17,11,53,28.30
2018,06,17,11,54,28.30
2018,06,17,11,55,28.30
2018,06,17,11,56,28.30
2018,06,17,11,57,28.40
2018,06,17,11,58,28.50
2018,06,17,11,59,28.60
2018,06,17,12,00,28.70
2018,06,17,12,01,28.80
2018,06,17,12,02,28.80
2018,06,17,12,03,28.80
2018,06,17,12,04,28.80
2018,06,17,12,05,28.90
2018,06,17,12,06,29.00
2018,06,17,12,07,29.10
2018,06,17,12,08,29.10
2018,06,17,12,09,29.20
2018,06,17,12,10,29.20
2018,06,17,12,11,29.20
2018,06,17,12,12,29.10
2018,06,17,12,13,29.00
2018,06,17,12,14,28.90
2018,06,17,12,15,28.80
2018,06,17,12,16,28.70
2018,06,17,12,17,28.60
2018,06,17,12,18,28.60
2018,06,17,12,19,28.70
2018,06,17,12,20,28.70
2018,06,17,12,21,28.70
2018,06,17,12,22,28.80
2018,06,17,12,23,28.90
2018,06,17,12,24,28.90
2018,06,17,12,25,28.80
2018,06,17,12,26,28.80
2018,06,17,12,27,28.80
2018,06,17,12,28,28.80
2018,06,17,12,29,28.90
2018,06,17,12,30,29.00
2018,06,17,12,31,29.00
2018,06,17,12,32,29.00
2018,06,17,12,33,29.10
2018,06,17,12,34,29.10
2018,06,17,12,35,29.10
2018,06,17,12,36,29.20
2018,06,17,12,37,29.20
2018,06,17,12,38,29.20
2018,06,17,12,39,29.20
2018,06,17,12,40,29.10
2018,06,17,12,41,29.10
2018,06,17,12,42,29.10
2018,06,17,12,43,29.00
2018,06,17,12,44,29.00
2018,06,17,12,45,29.00
2018,06,17,12,46,29.00
2018,06,17,12,47,29.10
2018,06,17,12,48,29.10
2018,06,17,12,49,29.20
2018,06,17,12,50,29.20
2018,06,17,12,51,29.20
2018,06,17,12,52,29.20
2018,06,17,12,53,29.10
2018,06,17,12,54,29.00
2018,06,17,12,55,28.70
2018,06,17,12,56,28.60
2018,06,17,12,57,28.50
2018,06,17,12,58,28.40
2018,06,17,12,59,28.50
2018,06,17,13,00,28.60
2018,06,17,13,01,28.70
2018,06,17,13,02,28.90
2018,06,17,13,03,29.00
2018,06,17,13,04,29.20
2018,06,17,13,05,29.30
2018,06,17,13,06,29.30
2018,06,17,13,07,29.20
2018,06,17,13,08,29.10
2018,06,17,13,09,29.00
2018,06,17,13,10,29.00
2018,06,17,13,11,29.00
2018,06,17,13,12,29.10
2018,06,17,13,13,29.20
2018,06,17,13,14,29.20
2018,06,17,13,15,29.30
2018,06,17,13,16,29.40
2018,06,17,13,17,29.50
2018,06,17,13,18,29.60
2018,06,17,13,19,29.60
2018,06,17,13,20,29.60
2018,06,17,13,21,29.70
2018,06,17,13,22,29.80
2018,06,17,13,23,29.80
2018,06,17,13,24,29.80
2018,06,17,13,25,29.70
2018,06,17,13,26,29.70
2018,06,17,13,27,29.70
2018,06,17,13,28,29.80
2018,06,17,13,29,29.80
2018,06,17,13,30,29.90
2018,06,17,13,31,29.90
2018,06,17,13,32,30.00
2018,06,17,13,33,30.00
2018,06,17,13,34,30.00
2018,06,17,13,35,29.90
2018,06,17,13,36,29.80
2018,06,17,13,37,29.80
2018,06,17,13,38,29.80
2018,06,17,13,39,29.70
2018,06,17,13,40,29.60
2018,06,17,13,41,29.40
2018,06,17,13,42,29.30
2018,06,17,13,43,29.10
2018,06,17,13,44,28.90
2018,06,17,13,45,28.70
2018,06,17,13,46,28.60
2018,06,17,13,47,28.50
2018,06,17,13,48,28.30
2018,06,17,13,49,28.30
2018,06,17,13,50,28.20
2018,06,17,13,51,28.20
2018,06,17,13,52,28.20
2018,06,17,13,53,28.20
2018,06,17,13,54,28.10
2018,06,17,13,55,28.10
2018,06,17,13,56,28.00
2018,06,17,13,57,27.90
2018,06,17,13,58,27.90
2018,06,17,13,59,27.90
2018,06,17,14,00,27.90
2018,06,17,14,01,28.00
2018,06,17,14,02,28.00
2018,06,17,14,03,28.10
2018,06,17,14,04,28.10
2018,06,17,14,05,28.10
2018,06,17,14,06,28.10
2018,06,17,14,07,28.10
2018,06,17,14,08,28.00
2018,06,17,14,09,27.90
2018,06,17,14,10,27.80
2018,06,17,14,11,27.80
2018,06,17,14,12,27.80
2018,06,17,14,13,27.80
2018,06,17,14,14,27.90
2018,06,17,14,15,28.00
2018,06,17,14,16,28.10
2018,06,17,14,17,28.10
2018,06,17,14,18,28.20
2018,06,17,14,19,28.20
2018,06,17,14,20,28.10
2018,06,17,14,21,28.00
2018,06,17,14,22,27.90
2018,06,17,14,23,27.90
2018,06,17,14,24,27.80
2018,06,17,14,25,27.80
2018,06,17,14,26,27.80
2018,06,17,14,27,27.80
2018,06,17,14,28,27.80
2018,06,17,14,29,27.90
2018,06,17,14,30,27.90
2018,06,17,14,31,27.80
2018,06,17,14,32,27.70
2018,06,17,14,33,27.70
2018,06,17,14,34,27.70
2018,06,17,14,35,27.70
2018,06,17,14,36,27.70
2018,06,17,14,37,27.70
2018,06,17,14,38,27.70
2018,06,17,14,39,27.70
2018,06,17,14,40,27.70
2018,06,17,14,41,27.80
2018,06,17,14,42,27.80
2018,06,17,14,43,27.80
2018,06,17,14,44,27.80
2018,06,17,14,45,27.80
2018,06,17,14,46,27.80
2018,06,17,14,47,27.90
2018,06,17,14,48,27.90
2018,06,17,14,49,27.90
2018,06,17,14,50,27.90
2018,06,17,14,51,28.00
2018,06,17,14,52,28.00
2018,06,17,14,53,28.00
2018,06,17,14,54,28.00
2018,06,17,14,55,27.90
2018,06,17,14,56,28.00
2018,06,17,14,57,28.10
2018,06,17,14,58,28.20
2018,06,17,14,59,28.30
2018,06,17,15,00,28.50
2018,06,17,15,01,28.50
2018,06,17,15,02,28.60
2018,06,17,15,03,28.70
2018,06,17,15,04,28.70
2018,06,17,15,05,28.70
2018,06,17,15,06,28.60
2018,06,17,15,07,28.50
2018,06,17,15,08,28.50
2018,06,17,15,09,28.50
2018,06,17,15,10,28.60
2018,06,17,15,11,28.60
2018,06,17,15,12,28.60
2018,06,17,15,13,28.60
2018,06,17,15,14,28.50
2018,06,17,15,15,28.40
2018,06,17,15,16,28.40
2018,06,17,15,17,28.30
2018,06,17,15,18,28.30
2018,06,17,15,19,28.30
2018,06,17,15,20,28.30
2018,06,17,15,21,28.40
2018,06,17,15,22,28.50
2018,06,17,15,23,28.60
2018,06,17,15,24,28.70
2018,06,17,15,25,28.80
2018,06,17,15,26,28.90
2018,06,17,15,27,28.90
2018,06,17,15,28,28.90
2018,06,17,15,29,28.80
2018,06,17,15,30,28.80
2018,06,17,15,31,28.80
2018,06,17,15,32,28.80
2018,06,17,15,33,28.80
2018,06,17,15,34,28.70
2018,06,17,15,35,28.60
2018,06,17,15,36,28.60
2018,06,17,15,37,28.60
2018,06,17,15,38,28.70
2018,06,17,15,39,28.70
2018,06,17,15,40,28.70
2018,06,17,15,41,28.60
2018,06,17,15,42,28.60
2018,06,17,15,43,28.60
2018,06,17,15,44,28.70
2018,06,17,15,45,28.70
2018,06,17,15,46,28.80
2018,06,17,15,47,28.80
2018,06,17,15,48,28.80
2018,06,17,15,49,28.90
2018,06,17,15,50,29.00
2018,06,17,15,51,29.10
2018,06,17,15,52,29.20
2018,06,17,15,53,29.30
2018,06,17,15,54,29.50
2018,06,17,15,55,29.60
2018,06,17,15,56,29.70
2018,06,17,15,57,29.90
2018,06,17,15,58,30.00
2018,06,17,15,59,30.20
2018,06,17,16,00,30.30
2018,06,17,16,01,30.20
2018,06,17,16,02,30.10
2018,06,17,16,03,29.90
2018,06,17,16,04,29.90
2018,06,17,16,05,29.90
2018,06,17,16,06,29.90
2018,06,17,16,07,29.90
2018,06,17,16,08,29.90
2018,06,17,16,09,29.90
2018,06,17,16,10,29.80
2018,06,17,16,11,29.90
2018,06,17,16,12,30.00
2018,06,17,16,13,30.10
2018,06,17,16,14,30.10
2018,06,17,16,15,30.10
2018,06,17,16,16,30.10
2018,06,17,16,17,30.00
2018,06,17,16,18,29.90
2018,06,17,16,19,29.70
2018,06,17,16,20,29.70
2018,06,17,16,21,29.70
2018,06,17,16,22,29.70
2018,06,17,16,23,29.80
2018,06,17,16,24,29.90
2018,06,17,16,25,29.90
2018,06,17,16,26,29.90
2018,06,17,16,27,29.70
2018,06,17,16,28,29.60
2018,06,17,16,29,29.60
2018,06,17,16,30,29.60
2018,06,17,16,31,29.60
2018,06,17,16,32,29.60
2018,06,17,16,33,29.50
2018,06,17,16,34,29.40
2018,06,17,16,35,29.40
2018,06,17,16,36,29.40
2018,06,17,16,37,29.50
2018,06,17,16,38,29.50
2018,06,17,16,39,29.60
2018,06,17,16,40,29.70
2018,06,17,16,41,29.70
2018,06,17,16,42,29.70
2018,06,17,16,43,29.70
2018,06,17,16,44,29.70
2018,06,17,16,45,29.60
2018,06,17,16,46,29.60
2018,06,17,16,47,29.50
2018,06,17,16,48,29.40
2018,06,17,16,49,29.40
2018,06,17,16,50,29.30
2018,06,17,16,51,29.30
2018,06,17,16,52,29.40
2018,06,17,16,53,29.40
2018,06,17,16,54,29.40
2018,06,17,16,55,29.50
2018,06,17,16,56,29.50
2018,06,17,16,57,29.50
2018,06,17,16,58,29.50
2018,06,17,16,59,29.50
2018,06,17,17,00,29.60
2018,06,17,17,01,29.60
2018,06,17,17,02,29.60
2018,06,17,17,03,29.60
2018,06,17,17,04,29.60
2018,06,17,17,05,29.50
2018,06,17,17,06,29.50
2018,06,17,17,07,29.50
2018,06,17,17,08,29.50
2018,06,17,17,09,29.60
2018,06,17,17,10,29.60
2018,06,17,17,11,29.60
2018,06,17,17,12,29.60
2018,06,17,17,13,29.60
2018,06,17,17,14,29.60
2018,06,17,17,15,29.60
2018,06,17,17,16,29.50
2018,06,17,17,17,29.50
2018,06,17,17,18,29.50
2018,06,17,17,19,29.60